Weather History for VTST - January, 2014

Change the Weather History Date:

Saturday, January 4, 2014

  Actual Average Record
Temperature  
Mean Temperature 82 °F -  
Max Temperature 93 °F 90 °F - ()
Min Temperature 72 °F 70 °F - ()
Cooling Degree Days 18    
Growing Degree Days 32 (Base 50)    
Moisture  
Dew Point 74 °F    
Average Humidity 75    
Maximum Humidity 100    
Minimum Humidity 45    
Precipitation  
Precipitation 0.00 in 0.06 in - ()
Sea Level Pressure  
Sea Level Pressure 29.84 in    
Wind  
Wind Speed 2 mph ()    
Max Wind Speed 12 mph    
Max Gust Speed -    
Visibility 4.8 miles    
Events      
T = Trace of Precipitation, MM = Missing Value Source: Averaged Metar Reports

Daily Weather History Graph

Daily Weather History Graph

Search for Another Location

Airport or City:

Trip Planner

Search our weather history database for the weather conditions in past years. The results will help you decide how hot, cold, wet, or windy it might be!

Date:

Astronomy

Jan. 04, 2014 Rise Set
Actual Time 6:35 AM ICT 6:17 PM ICT
Civil Twilight 6:12 AM ICT 6:40 PM ICT
Nautical Twilight 5:46 AM ICT 7:06 PM ICT
Astronomical Twilight 5:20 AM ICT 7:32 PM ICT
Moon 8:59 AM ICT 9:15 PM ICT
Length of Visible Light 12h 27m
Length of Day
11h 42m
Waxing Crescent, 11% of the Moon is Illuminated
Jan 4
Waxing Crescent
Jan 8
First Quarter
Jan 16
Full
Jan 24
Last Quarter
Jan 31
New

Hourly Weather History & Observations

Time (ICT) Temp. Heat Index Dew Point Humidity Pressure Visibility Wind Dir Wind Speed Gust Speed Precip Events Conditions
1:00 AM 76 °F - 74 °F 91% 29.88 in 6 mi Calm Calm - -   Scattered Clouds
4:00 AM 74 °F - 72 °F 91% 29.86 in 5 mi Calm Calm - -   Mist
7:00 AM 73 °F - 72 °F 94% 29.89 in 2 mi Calm Calm - -   Mist
7:00 AM 73.4 °F - 73.4 °F 100% 29.86 in 1.9 mi Calm Calm - N/A   Mostly Cloudy
8:00 AM 77.0 °F - 75.2 °F 94% 29.89 in 3.1 mi Calm Calm - N/A   Scattered Clouds
9:00 AM 80.6 °F 87.1 °F 77.0 °F 89% 29.89 in 3.7 mi NE 3.5 mph - N/A   Partly Cloudy
10:00 AM 86 °F - 75 °F 63% 29.92 in 4 mi Calm Calm - -   Mist
10:00 AM 86.0 °F 95.1 °F 75.2 °F 70% 29.89 in 4.3 mi Calm Calm - N/A   Partly Cloudy
11:00 AM 87.8 °F 93.8 °F 71.6 °F 58% 29.86 in 5.0 mi NNE 6.9 mph - N/A   Partly Cloudy
12:00 PM 87.8 °F 92.6 °F 69.8 °F 55% 29.83 in 5.6 mi North 4.6 mph - N/A   Scattered Clouds
1:00 PM 92 °F - 73 °F 45% 29.85 in 6 mi NW 5.8 mph - -   Haze
1:00 PM 89.6 °F 94.7 °F 69.8 °F 52% 29.80 in 5.6 mi NNW 6.9 mph - N/A   Scattered Clouds
2:00 PM 89.6 °F 96.2 °F 71.6 °F 55% 29.77 in 5.6 mi NNW 3.5 mph - N/A   Scattered Clouds
3:00 PM 91.4 °F 102.5 °F 75.2 °F 59% 29.74 in 5.6 mi WSW 11.5 mph - N/A   Scattered Clouds
4:00 PM 89 °F - 77 °F 59% 29.79 in 5 mi South 5.8 mph - -   Mist
4:00 PM 86.0 °F 95.1 °F 75.2 °F 70% 29.74 in 5.0 mi South 8.1 mph - N/A   Scattered Clouds
5:00 PM 78.8 °F - 77.0 °F 94% 29.77 in 5.0 mi South 6.9 mph - N/A   Scattered Clouds
7:00 PM 80 °F - 76 °F 86% 29.85 in 6 mi Calm Calm - -   Mist
10:00 PM 75 °F - 73 °F 91% 29.88 in 6 mi Calm Calm - -   Mist